Weather Roundup
Issued by NWS Corpus Christi, TX

Home | Current Version | Previous Version | Text Only | Print | Product List | Glossary On
Versions: 1 2 3 4 5 6 7 8 9 10 11 12 13 14 15 16 17 18 19 20 21 22 23 24 25 26 27 28 29 30 31 32 33 34 35 36 37 38 39 40 41 42 43 44 45 46 47 48 49 50
000
ASUS44 KCRP 231610
HRRCRP

SOUTH TEXAS REGIONAL WEATHER ROUNDUP
NATIONAL WEATHER SERVICE CORPUS CHRISTI TX
1000 AM CST THU NOV 23 2017


TXZ229>244-231700-
...CORPUS CHRISTI AREA OBSERVATIONS...

CITY           SKY/WX    TMP DP  RH WIND       PRES   REMARKS
CORPUS CHRISTI MOSUNNY   57  34  41 N9        30.23S
NAS CORPUS CHR SUNNY     60  40  47 N10       30.22S
ROCKPORT       SUNNY     55  40  56 NW9       30.23R
KINGSVILLE ARP FAIR      59  32  36 N3        30.24F
KINGSVILLE NAS SUNNY     60  34  37 N6        30.23F
ALICE          SUNNY     59  26  28 N5        30.24S
$$

...VICTORIA AREA OBSERVATIONS...

CITY           SKY/WX    TMP DP  RH WIND       PRES   REMARKS
PORT LAVACA    SUNNY     53  40  60 N5        30.23R
VICTORIA       SUNNY     57  34  41 N7        30.23S
BEEVILLE       FAIR      56  29  34 NE6       30.25R
PLEASANTON     SUNNY     57  24  28 CALM      30.25F
SAN ANTONIO    MOSUNNY   56  22  26 CALM      30.24S
$$

...LAREDO AREA OBSERVATIONS...

CITY           SKY/WX    TMP DP  RH WIND       PRES   REMARKS
LAREDO         SUNNY     59  41  51 CALM      30.25R
COTULLA        SUNNY     57  22  25 SE5       30.25S
DEL RIO        SUNNY     51  33  50 S6        30.23S
MCALLEN        SUNNY     62  40  44 N6        30.24S
HEBBRONVILLE   SUNNY     59  31  34 CALM      30.24F
$$

...OTHER TEXAS OBSERVATIONS...

CITY           SKY/WX    TMP DP  RH WIND       PRES   REMARKS
BROWNSVILLE    SUNNY     66  48  52 NW7       30.22S
HOUSTON        MOSUNNY   53  37  54 CALM      30.22S
COL. STATION   SUNNY     53  30  41 N5        30.23S
AUSTIN         MOSUNNY   52  26  36 CALM      30.23S
WACO           SUNNY     50  32  50 SE3       30.23S
FORT WORTH     MOSUNNY   53  27  36 S8        30.18S
WICHITA FALLS  SUNNY     49  27  42 VRB5      30.15S HAZE
LUBBOCK        PTSUNNY   62  30  29 NW5       30.20S
EL PASO        MOSUNNY   53  27  36 N5        30.29R
$$

...MARINE OBSERVATIONS...

STATION/POSITION TIME  SKY/WX   TEMP    WIND        PRES    VSBY  WAVE   SWELL
                                AIR SEA DIR/SP/G                  HT/PER HT/PER
                 (UTC)          (F)     (DEG/KT/KT) (MB)    (MI)  (FT/S) (FT/S)
PORT ARANSAS     NOT AVBL
BUOY 90 E PORT A 1450            63 77  360/ 12/ 16 1021.5          5/ 7   3/ 7
BUOY 200 E PT IS 1450            70 80   10/ 16/ 19 1019.3          6/ 8   3/ 8
BUOY 15 E GALVES 1450            54 69   20/ 12/ 17 1022.3          3/ 4   2/ 7
$$



USA.gov is the U.S. government's official web portal to all federal, state and local government web resources and services.